Change the Weather History Date:

Saturday, March 16, 2013

  Actual Average (KGDV) Record (KGDV)
Temperature  
Mean Temperature 18 °F -  
Max Temperature 21 °F 38 °F 77 °F (2012)
Min Temperature 14 °F 18 °F 15 °F (2013)
Degree Days  
Heating Degree Days 48    
Moisture  
Dew Point 13 °F    
Average Humidity 85    
Maximum Humidity 93    
Minimum Humidity 73    
Precipitation  
Precipitation 0.70 in - - ()
Sea Level Pressure  
Sea Level Pressure 30.04 in    
Wind  
Wind Speed 10 mph (NE)    
Max Wind Speed 25 mph    
Max Gust Speed 34 mph    
Visibility 8 miles    
Events Snow    
Averages and records for this station are not official NWS values.
T = Trace of Precipitation, MM = Missing Value Source: NWS Daily Summary

Daily Weather History Graph

Daily Weather History Graph

Search for Another Location

Airport or City:

Trip Planner

Search our weather history database for the weather conditions in past years. The results will help you decide how hot, cold, wet, or windy it might be!

Date:

Astronomy

Mar. 16, 2013 Rise Set
Actual Time 7:06 AM MDT 7:03 PM MDT
Civil Twilight 6:35 AM MDT 7:33 PM MDT
Nautical Twilight 6:00 AM MDT 8:09 PM MDT
Astronomical Twilight 5:24 AM MDT 8:45 PM MDT
Moon 9:18 AM MDT (3/16) No Moon Set
Length of Visible Light 12h 57m
Length of Day
11h 57m
Waxing Crescent, 23% of the Moon is Illuminated
Mar 16
Waxing Crescent
Mar 19
First Quarter
Mar 27
Full
Apr 2
Last Quarter
Apr 10
New

Hourly Weather History & Observations

Time (MDT) Temp. Windchill Dew Point Humidity Pressure Visibility Wind Dir Wind Speed Gust Speed Precip Events Conditions
12:15 AM 17.6 °F 3.7 °F 15.8 °F 93% 30.10 in 10.0 mi NNW 13.8 mph - N/A   Overcast
12:35 AM 17.6 °F 5.7 °F 15.8 °F 93% 30.10 in 10.0 mi NNW 10.4 mph - N/A   Overcast
12:55 AM 17.6 °F 7.3 °F 15.8 °F 93% 30.10 in 10.0 mi NNW 8.1 mph - N/A   Overcast
1:15 AM 17.6 °F 7.3 °F 15.8 °F 93% 30.11 in 10.0 mi NNW 8.1 mph - N/A Snow Light Snow
1:35 AM 17.6 °F 8.2 °F 14.0 °F 86% 30.11 in 10.0 mi NW 6.9 mph - N/A Snow Light Snow
1:55 AM 17.6 °F 7.3 °F 15.8 °F 93% 30.11 in 10.0 mi NW 8.1 mph - N/A Snow Light Snow
2:15 AM 17.6 °F 5.0 °F 14.0 °F 86% 30.12 in 10.0 mi NW 11.5 mph - N/A   Overcast
2:35 AM 15.8 °F 2.7 °F 14.0 °F 93% 30.12 in 10.0 mi NW 11.5 mph - N/A   Overcast
2:55 AM 15.8 °F 4.2 °F 14.0 °F 93% 30.12 in 10.0 mi NW 9.2 mph - N/A   Overcast
3:15 AM 15.8 °F 5.1 °F 14.0 °F 93% 30.12 in 10.0 mi NW 8.1 mph - N/A   Overcast
3:35 AM 15.8 °F 5.1 °F 14.0 °F 93% 30.12 in 10.0 mi NW 8.1 mph - N/A   Overcast
3:55 AM 14.0 °F 0.5 °F 12.2 °F 93% 30.12 in 10.0 mi NW 11.5 mph - N/A   Mostly Cloudy
4:15 AM 14.0 °F 1.2 °F 12.2 °F 93% 30.11 in 10.0 mi NW 10.4 mph - N/A   Scattered Clouds
4:35 AM 14.0 °F 0.5 °F 12.2 °F 93% 30.11 in 10.0 mi NW 11.5 mph - N/A   Mostly Cloudy
4:55 AM 14.0 °F 2.9 °F 12.2 °F 93% 30.11 in 10.0 mi NNW 8.1 mph - N/A   Overcast
5:15 AM 14.0 °F 2.9 °F 10.4 °F 86% 30.10 in 10.0 mi NW 8.1 mph - N/A   Overcast
5:35 AM 14.0 °F 3.9 °F 10.4 °F 86% 30.11 in 10.0 mi NW 6.9 mph - N/A   Overcast
5:55 AM 14.0 °F 5.1 °F 10.4 °F 86% 30.11 in 10.0 mi NNW 5.8 mph - N/A   Overcast
6:15 AM 14.0 °F 5.1 °F 10.4 °F 86% 30.10 in 10.0 mi North 5.8 mph - N/A   Overcast
6:35 AM 14.0 °F 5.1 °F 10.4 °F 86% 30.09 in 10.0 mi North 5.8 mph - N/A   Overcast
6:55 AM 14.0 °F 6.5 °F 10.4 °F 86% 30.09 in 10.0 mi North 4.6 mph - N/A   Overcast
7:15 AM 14.0 °F 6.5 °F 10.4 °F 86% 30.09 in 10.0 mi North 4.6 mph - N/A   Overcast
7:55 AM 14.0 °F 6.5 °F 10.4 °F 86% 30.08 in 10.0 mi North 4.6 mph - N/A   Overcast
8:15 AM 15.8 °F 10.2 °F 10.4 °F 79% 30.07 in 10.0 mi North 3.5 mph - N/A   Overcast
8:35 AM 15.8 °F - 10.4 °F 79% 30.08 in 10.0 mi Calm Calm - N/A   Overcast
8:55 AM 15.8 °F 8.6 °F 10.4 °F 79% 30.08 in 10.0 mi North 4.6 mph - N/A   Overcast
9:15 AM 15.8 °F 6.1 °F 10.4 °F 79% 30.08 in 10.0 mi NNW 6.9 mph - N/A   Mostly Cloudy
9:35 AM 15.8 °F 8.6 °F 10.4 °F 79% 30.09 in 5.0 mi North 4.6 mph - 0.01 in Snow Light Snow
9:55 AM 17.6 °F 9.3 °F 10.4 °F 73% 30.08 in 10.0 mi NNE 5.8 mph - 0.01 in Snow Light Snow
10:15 AM 15.8 °F 7.2 °F 10.4 °F 79% 30.09 in 10.0 mi North 5.8 mph - N/A   Overcast
10:35 AM 15.8 °F 6.1 °F 10.4 °F 79% 30.08 in 10.0 mi NE 6.9 mph - N/A   Overcast
10:55 AM 17.6 °F 8.2 °F 10.4 °F 73% 30.08 in 9.0 mi NE 6.9 mph - N/A Snow Light Snow
11:15 AM 17.6 °F 9.3 °F 12.2 °F 79% 30.09 in 10.0 mi ENE 5.8 mph - N/A Snow Light Snow
11:35 AM 17.6 °F 8.2 °F 12.2 °F 79% 30.09 in 3.0 mi NE 6.9 mph - 0.02 in Snow Light Snow
11:55 AM 17.6 °F 7.3 °F 12.2 °F 79% 30.09 in 5.0 mi NE 8.1 mph - 0.06 in Snow Light Snow
12:15 PM 17.6 °F 8.2 °F 14.0 °F 86% 30.08 in 4.0 mi NE 6.9 mph - 0.01 in Snow Light Snow
12:35 PM 19.4 °F 11.5 °F 14.0 °F 80% 30.07 in 10.0 mi East 5.8 mph - 0.01 in   Overcast
12:55 PM 19.4 °F 11.5 °F 14.0 °F 80% 30.07 in 10.0 mi NE 5.8 mph - 0.01 in   Overcast
1:15 PM 19.4 °F 10.4 °F 14.0 °F 80% 30.06 in 10.0 mi NE 6.9 mph - N/A   Overcast
1:35 PM 21.2 °F 11.7 °F 14.0 °F 74% 30.05 in 10.0 mi ENE 8.1 mph - N/A   Overcast
1:55 PM 21.2 °F 12.6 °F 14.0 °F 74% 30.05 in 10.0 mi ENE 6.9 mph - N/A   Overcast
2:15 PM 21.2 °F 11.7 °F 14.0 °F 74% 30.04 in 10.0 mi ENE 8.1 mph - N/A   Overcast
2:35 PM 21.2 °F 10.9 °F 14.0 °F 74% 30.03 in 10.0 mi ENE 9.2 mph - N/A   Mostly Cloudy
2:55 PM 21.2 °F 10.1 °F 14.0 °F 74% 30.03 in 2.5 mi ENE 10.4 mph - 0.04 in Snow Light Snow
3:15 PM 19.4 °F 7.9 °F 15.8 °F 86% 30.03 in 1.8 mi ENE 10.4 mph - 0.09 in Snow Light Snow
3:35 PM 19.4 °F 7.9 °F 15.8 °F 86% 30.03 in 2.5 mi East 10.4 mph - 0.17 in Snow Light Snow
3:55 PM 19.4 °F 6.6 °F 15.8 °F 86% 30.03 in 5.0 mi East 12.7 mph - 0.18 in Snow Light Snow
4:15 PM 19.4 °F 7.2 °F 14.0 °F 80% 30.02 in 10.0 mi East 11.5 mph - N/A Snow Light Snow
4:35 PM 19.4 °F 6.6 °F 15.8 °F 86% 30.02 in 10.0 mi East 12.7 mph - N/A   Overcast
4:55 PM 19.4 °F 7.2 °F 14.0 °F 80% 30.02 in 10.0 mi East 11.5 mph 17.3 mph N/A   Overcast
5:15 PM 19.4 °F 7.9 °F 15.8 °F 86% 30.02 in 3.0 mi East 10.4 mph - 0.01 in Snow Light Snow
5:35 PM 19.4 °F 7.2 °F 15.8 °F 86% 30.01 in 2.0 mi East 11.5 mph - 0.04 in Snow Light Snow
5:55 PM 19.4 °F 6.6 °F 15.8 °F 86% 30.01 in 0.8 mi East 12.7 mph - 0.06 in Snow Light Snow
6:15 PM 19.4 °F 5.5 °F 15.8 °F 86% 30.00 in 2.5 mi East 15.0 mph 19.6 mph N/A Snow Light Snow
6:35 PM 19.4 °F 5.0 °F 15.8 °F 86% 29.99 in 1.0 mi East 16.1 mph - 0.06 in Snow Light Snow
6:55 PM 17.6 °F 2.2 °F 15.8 °F 93% 29.99 in 0.8 mi East 17.3 mph 23.0 mph 0.21 in Snow Light Snow
7:15 PM 17.6 °F 2.2 °F 14.0 °F 86% 29.98 in 1.0 mi East 17.3 mph - 0.07 in Snow Light Snow
7:35 PM 17.6 °F 1.3 °F 14.0 °F 86% 29.98 in 2.5 mi East 19.6 mph - 0.10 in Snow Light Snow
7:55 PM 15.8 °F -1.1 °F 14.0 °F 93% 29.98 in 3.0 mi ESE 19.6 mph 24.2 mph 0.12 in Snow Light Snow
8:15 PM 15.8 °F -0.6 °F 12.2 °F 86% 29.98 in 9.0 mi ESE 18.4 mph 24.2 mph N/A Snow Light Snow
8:35 PM 15.8 °F -0.6 °F 12.2 °F 86% 29.97 in 10.0 mi ESE 18.4 mph 21.9 mph N/A   Overcast
8:55 PM 15.8 °F -0.6 °F 12.2 °F 86% 29.96 in 7.0 mi SE 18.4 mph 23.0 mph N/A Snow Light Snow
9:15 PM 15.8 °F -0.6 °F 12.2 °F 86% 29.95 in 5.0 mi ESE 18.4 mph 25.3 mph N/A Snow Light Snow
9:35 PM 15.8 °F -1.1 °F 14.0 °F 93% 29.95 in 8.0 mi SE 19.6 mph 25.3 mph N/A   Overcast
9:55 PM 15.8 °F -1.9 °F 14.0 °F 93% 29.94 in 10.0 mi SE 21.9 mph 26.5 mph N/A   Overcast
10:15 PM 17.6 °F 1.3 °F 14.0 °F 86% 29.93 in 10.0 mi SE 19.6 mph 29.9 mph N/A   Overcast
10:35 PM 17.6 °F 0.9 °F 14.0 °F 86% 29.92 in 10.0 mi SE 20.7 mph 29.9 mph N/A Snow Light Snow
10:55 PM 17.6 °F 1.7 °F 14.0 °F 86% 29.90 in 10.0 mi SE 18.4 mph 25.3 mph N/A   Overcast
11:15 PM 17.6 °F 0.1 °F 15.8 °F 93% 29.88 in 10.0 mi SE 23.0 mph 31.1 mph N/A Snow Light Snow
11:35 PM 17.6 °F -0.6 °F 15.8 °F 93% 29.87 in 10.0 mi SE 25.3 mph 34.5 mph 0.01 in Snow Light Snow
11:55 PM 17.6 °F 0.1 °F 15.8 °F 93% 29.86 in 9.0 mi SE 23.0 mph 31.1 mph 0.01 in Snow Light Snow